[[[{"header":{"parameterUnit":"kt","parameterCategory":2,"dx":1,"dy":1,"la1":30.253999710083008,"la2":30.299108505249023,"lo1":-89.0895004272461,"lo2":-89.04439544677734,"nx":28,"ny":28,"refTime":"2022-10-29T21:00:00:Z","depth":0,"parameterNumber":1,"parameterNumberName":"U-component_of_WINDS"},"data":[-13.9544,-13.9675,-13.9709,-13.9873,-13.993,-14.0047,-14.0099,-14.017,-14.0235,-14.0378,-14.0465,-14.0511,-14.0587,-14.0699,-14.0794,-14.0812,-14.0848,-14.0872,-14.0888,-14.0756,-14.074,-14.0724,-14.0693,-14.0881,-14.0881,-14.1017,-14.1018,-14.1019,-13.9448,-13.9506,-13.9603,-13.9719,-13.9802,-13.98,-13.9891,-13.996,-14.0064,-14.0145,-14.0233,-14.0361,-14.0465,-14.0534,-14.064,-14.07,-14.0703,-14.0726,-14.0719,-14.073,-14.0592,-14.056,-14.0722,-14.0722,-14.0722,-14.0722,-14.0722,-14.0722,-13.9279,-13.9357,-13.9445,-13.9551,-13.9618,-13.9695,-13.9774,-13.9828,-13.9922,-14.0036,-14.0056,-14.0174,-14.0259,-14.0401,-14.0456,-14.0548,-14.0527,-14.0561,-14.0568,-14.0575,-14.0577,-14.0372,-14.0568,-14.0568,-14.0567,-14.0567,-14.0567,0,-13.9164,-13.9187,-13.9281,-13.9386,-13.9464,-13.9548,-13.963,-13.968,-13.9734,-13.981,-13.9921,-13.9989,-14.0126,-14.0232,-14.0337,-14.0387,-14.0387,-14.0392,-14.0415,-14.0403,-14.0381,-14.039,-14.0159,-14.0384,-14.0383,-14.0381,-14.0381,-14.038,-13.8993,-13.908,-13.9188,-13.925,-13.9302,-13.9402,-13.9467,-13.9509,-13.9576,-13.9682,-13.9747,-13.9856,-13.9944,-14.0115,-14.0173,-14.0274,-14.0273,-14.0356,-14.0288,-14.0276,-14.0269,-14.0261,-14.0269,-14.0365,-14.0367,-14.0368,-14.037,0,-13.8892,-13.8944,-13.9089,-13.9186,-13.9213,-13.9302,-13.9384,-13.9463,-13.9505,-13.9619,-13.9647,-13.9713,-13.982,-13.9865,-13.9997,-14.0016,-14.016,-14.0161,-14.0131,-14.0132,-14.0207,-14.0197,-14.0449,-14.0483,-14.0295,-14.0297,-14.0298,0,-13.8763,-13.8876,-13.8945,-13.9026,-13.9153,-13.9191,-13.9315,-13.9363,-13.9436,-13.9525,-13.9535,-13.9618,-13.9663,-13.9753,-13.9783,-13.9909,-13.9935,-13.9955,-13.9961,-13.9951,-13.9948,-13.9981,-13.997,-13.9975,-13.9974,-13.9972,-13.9971,0,-13.8596,-13.8766,-13.8899,-13.8945,-13.9058,-13.912,-13.9169,-13.925,-13.9313,-13.9402,-13.9443,-13.9544,-13.9598,-13.9676,-13.9712,-13.9664,-13.9869,-13.981,-13.9889,-13.9888,-13.9926,-13.9922,-14.014,-13.997,-13.9969,-13.9969,-13.9968,0,-13.8497,-13.8588,-13.8774,-13.8867,-13.8909,-13.8997,-13.9098,-13.9184,-13.9269,-13.9293,-13.9363,-13.9371,-13.9488,-13.9426,-13.9586,-13.9513,-13.9566,-13.9597,-13.9604,-13.961,-13.9538,-13.9649,-13.9857,-13.9878,-13.9626,-13.9623,-13.9621,0,-13.829,-13.8491,-13.8523,-13.8699,-13.8797,-13.8799,-13.8897,-13.8971,-13.9012,-13.9099,-13.9143,-13.9243,-13.9207,-13.9243,-13.9318,-13.9364,-13.946,-13.9354,-13.9475,-13.9479,-13.9447,-13.9641,-13.9657,-13.9808,-13.9585,-13.9589,-13.9592,0,-13.8134,-13.827,-13.8298,-13.8351,-13.8456,-13.8538,-13.8652,-13.8759,-13.8815,-13.8898,-13.8992,-13.9135,-13.9112,-13.9172,-13.9188,-13.9263,-13.9397,-13.9227,-13.9229,-13.9252,-13.9572,-13.9587,-13.9612,-13.9391,-13.9396,-13.9399,-13.9563,0,-13.7965,-13.8072,-13.8154,-13.827,-13.8341,-13.8453,-13.8499,-13.8567,-13.8576,-13.8614,-13.8754,-13.8824,-13.893,-13.8972,-13.898,-13.9138,-13.9117,-13.909,-13.9027,-13.9156,-13.9211,-13.9234,-13.8943,-13.8941,-13.894,-13.8939,0,0,-13.7751,-13.7904,-13.7934,-13.8045,-13.8105,-13.8103,-13.8218,-13.8277,-13.8394,-13.8435,-13.8403,-13.8612,-13.8669,-13.8833,-13.8877,-13.8921,-13.8952,-13.8904,-13.9096,-13.9113,-13.9129,-13.9187,-13.921,-13.8937,-13.8936,-13.8936,-13.8935,0,-13.7697,-13.776,-13.7875,-13.7938,-13.8031,-13.8065,-13.8093,-13.8183,-13.8212,-13.835,-13.8342,-13.8431,-13.8596,-13.8657,-13.8709,-13.8888,-13.8874,-13.8918,-13.8997,-13.9081,-13.91,-13.9117,-13.9178,-13.92,-13.8932,-13.8932,-13.8932,0,-13.7548,-13.7616,-13.7676,-13.7815,-13.7875,-13.7976,-13.7923,-13.8032,-13.8106,-13.8092,-13.8227,-13.8272,-13.8357,-13.8507,-13.8576,-13.8547,-13.88,-13.8728,-13.8738,-13.8744,-13.8827,-13.885,-13.8871,-13.8601,-13.8599,-13.8598,0,0,-13.7494,-13.7594,-13.7676,-13.7807,-13.7845,-13.7897,-13.7955,-13.7968,-13.8046,-13.8076,-13.8132,-13.8207,-13.8303,-13.8365,-13.8457,-13.8616,-13.8635,-13.8686,-13.8701,-13.8714,-13.8727,-13.8814,-13.8836,-13.8593,-13.8593,-13.8593,0,0,-13.7468,-13.7569,-13.7563,-13.772,-13.7796,-13.7883,-13.796,-13.7955,-13.8042,-13.8033,-13.8059,-13.808,-13.8221,-13.8263,-13.8191,-13.8434,-13.8373,-13.8391,-13.84,-13.842,-13.8436,-13.842,-13.8142,0,0,0,0,0,-13.7433,-13.7557,-13.7551,-13.7584,-13.7757,-13.7887,-13.7909,-13.7934,-13.789,-13.795,-13.7996,-13.7978,-13.823,-13.8167,-13.8198,-13.8276,-13.8528,-13.854,-13.855,-13.86,-13.8621,-13.8639,0,0,0,0,0,0,-13.7447,-13.7487,-13.7548,-13.764,-13.7679,-13.7883,-13.7813,-13.7823,-13.7884,-13.7878,-13.797,-13.7981,-13.8002,-13.8152,-13.818,-13.8253,-13.8133,-13.8533,-13.8542,-13.8551,-13.8608,-13.8625,-13.8639,0,0,0,0,0,-13.7457,-13.7489,-13.7761,-13.7638,-13.7672,-13.7734,-13.7809,-13.7817,-13.7863,-13.7933,-13.7943,-13.7876,-13.8004,-13.8029,-13.8169,-13.824,-13.8114,-13.8124,-13.8539,-13.8547,-13.8553,-13.8616,0,0,0,0,0,0,-13.7465,-13.7497,-13.7768,-13.7779,-13.7593,-13.7723,-13.7745,-13.7811,-13.7914,-13.7926,-13.7839,-13.7834,-13.8007,-13.8025,-13.8045,-13.8234,-13.8099,-13.8109,-13.8116,-13.8545,-13.8551,-13.8556,0,0,0,0,0,0,-13.748,-13.7506,-13.7774,-13.7715,-13.772,-13.7713,-13.7732,-13.7854,-13.7915,-13.7815,-13.7814,-13.7836,-13.7977,-13.8024,-13.8038,-13.8228,-13.8087,-13.8097,-13.8104,-13.8108,-13.855,-13.8554,0,0,0,0,0,0,-13.7491,-13.7514,-13.7712,-13.7716,-13.772,-13.7847,-13.7821,-13.7996,-13.7867,-13.781,-13.7856,-13.7851,-13.7976,-13.7991,-13.8034,-13.8217,-13.8225,-13.8087,-13.8094,-13.8099,-13.8102,0,0,0,0,0,0,0,-13.7501,-13.7341,-13.7702,-13.7717,-13.772,-13.7883,-13.7886,-13.7889,-13.7866,-13.7862,-13.7857,-13.7853,-13.803,-13.804,-13.8052,-13.8209,0,0,-13.8086,-13.8091,0,0,0,0,0,0,0,0,-13.7332,-13.7339,-13.7702,-13.7705,-13.7707,-13.7883,-13.7886,-13.7888,-13.7865,-13.7862,-13.7858,-13.7855,-13.8033,-13.8041,-13.805,0,0,0,0,0,0,0,0,0,0,0,0,0,0,0,-13.7703,-13.7705,0,-13.7884,-13.7886,-13.7888,-13.7865,-13.7862,-13.7859,-13.7856,-13.8035,-13.8042,-13.805,0,0,0,0,0,0,0,0,0,0,0,0,0,0,0,0,0,0,0,0,0,0,0,0,0,0,0,0,0,0,0,0,0,0,0,0,0,0,0,0,0,0,0,0,0,0,0,0,0,0,0,0,0,0,0,0,0,0,0,0,0,0,0,0,0,0,0,0,0]}],[{"header":{"parameterUnit":"kt","parameterCategory":2,"dx":1,"dy":1,"la1":30.253999710083008,"la2":30.299108505249023,"lo1":-89.0895004272461,"lo2":-89.04439544677734,"nx":28,"ny":28,"refTime":"2022-10-29T21:00:00:Z","depth":0,"parameterNumber":2,"parameterNumberName":"V-component_of_WINDS"},"data":[5.4189,5.421,5.4255,5.4298,5.4345,5.4382,5.4409,5.4448,5.449,5.4537,5.4572,5.4615,5.4671,5.4722,5.476,5.4778,5.4792,5.4771,5.4795,5.4854,5.4864,5.4875,5.4875,5.4773,5.4773,5.4731,5.473,5.473,5.4239,5.4287,5.4321,5.4384,5.4415,5.4464,5.4516,5.4538,5.4568,5.4618,5.4653,5.4696,5.4735,5.4798,5.4842,5.4852,5.4876,5.4861,5.4862,5.487,5.4933,5.4933,5.4842,5.4842,5.4842,5.4842,5.4842,5.4842,5.4342,5.4352,5.4415,5.4453,5.4495,5.4536,5.4552,5.4606,5.4638,5.4689,5.473,5.4763,5.4819,5.4888,5.492,5.4947,5.497,5.4965,5.4965,5.4964,5.4959,5.5023,5.4955,5.4955,5.4956,5.4956,5.4956,0,5.4432,5.4468,5.4502,5.455,5.4579,5.4618,5.4661,5.4671,5.4756,5.4778,5.4813,5.484,5.4892,5.4928,5.4975,5.5009,5.5058,5.5065,5.5063,5.5046,5.5028,5.5042,5.5147,5.5066,5.5067,5.5068,5.5068,5.5069,5.4542,5.4545,5.4629,5.4647,5.4681,5.4707,5.4732,5.4806,5.4828,5.4889,5.4892,5.4929,5.4962,5.5007,5.5063,5.51,5.5124,5.509,5.5129,5.5115,5.5128,5.5128,5.5131,5.508,5.5079,5.5077,5.5076,0,5.4602,5.4669,5.4686,5.4767,5.4788,5.4786,5.4855,5.4864,5.4912,5.4932,5.494,5.5014,5.5044,5.5106,5.515,5.5182,5.5183,5.5203,5.5168,5.5177,5.5155,5.5158,5.5066,5.506,5.5163,5.5161,5.5161,0,5.4723,5.4722,5.4824,5.4829,5.4832,5.4906,5.4906,5.4947,5.4994,5.5009,5.5075,5.5088,5.5164,5.5186,5.5231,5.5242,5.5249,5.5274,5.5287,5.527,5.5267,5.5281,5.5287,5.5309,5.5309,5.531,5.531,0,5.4811,5.486,5.487,5.4892,5.4974,5.4977,5.501,5.5062,5.5082,5.5118,5.5133,5.5168,5.5187,5.5213,5.5272,5.5297,5.5285,5.5331,5.5311,5.531,5.5305,5.5304,5.5208,5.531,5.5311,5.5311,5.5311,0,5.4919,5.4957,5.4957,5.503,5.5039,5.5042,5.5085,5.5102,5.5151,5.5181,5.5208,5.5258,5.5269,5.5312,5.533,5.5347,5.5363,5.5387,5.5387,5.5392,5.5438,5.538,5.5279,5.5273,5.5398,5.5399,5.5399,0,5.5005,5.5021,5.5085,5.5082,5.5099,5.5175,5.518,5.522,5.526,5.5279,5.5323,5.5341,5.5385,5.5399,5.54,5.5444,5.5421,5.5448,5.5476,5.5476,5.5466,5.5374,5.5345,5.5295,5.5409,5.5408,5.5407,0,5.5078,5.5177,5.5171,5.5201,5.5264,5.5275,5.528,5.5316,5.5326,5.5359,5.5367,5.539,5.5428,5.5447,5.5489,5.5486,5.5439,5.5523,5.5525,5.551,5.5417,5.5391,5.5382,5.5468,5.5467,5.5466,5.5415,0,5.5236,5.5249,5.5236,5.5291,5.5309,5.5308,5.5374,5.5385,5.5426,5.5467,5.5474,5.5516,5.5547,5.555,5.5586,5.5558,5.5572,5.5608,5.5653,5.5591,5.5576,5.557,5.5671,5.5673,5.5674,5.5676,0,0,5.5302,5.5323,5.5388,5.5394,5.5415,5.549,5.5483,5.5509,5.5559,5.5571,5.5598,5.5636,5.5667,5.5668,5.5653,5.5663,5.5665,5.5681,5.5619,5.5613,5.5607,5.559,5.5582,5.5678,5.5679,5.5679,5.5679,0,5.5374,5.5408,5.54,5.5432,5.5481,5.5524,5.5522,5.5582,5.5607,5.5611,5.567,5.5681,5.5704,5.5732,5.5749,5.5684,5.5726,5.5687,5.5634,5.5631,5.5623,5.5616,5.5597,5.5589,5.5683,5.5683,5.5683,0,5.5461,5.5507,5.5509,5.5554,5.5585,5.5595,5.5663,5.5668,5.5677,5.5752,5.5754,5.5785,5.5824,5.5813,5.581,5.5833,5.5779,5.5803,5.5796,5.5797,5.5797,5.5786,5.5777,5.5898,5.5898,5.5899,0,0,5.5513,5.5525,5.5593,5.5573,5.559,5.5652,5.5662,5.5703,5.5739,5.5752,5.5791,5.5822,5.5838,5.5846,5.5863,5.5841,5.5856,5.5827,5.5817,5.5809,5.5805,5.5802,5.5792,5.5901,5.5901,5.5901,0,0,5.5537,5.5618,5.5653,5.5638,5.5672,5.5735,5.572,5.5763,5.5785,5.5792,5.5856,5.5867,5.5857,5.5882,5.5902,5.588,5.5924,5.592,5.5864,5.5852,5.5842,5.5837,5.5972,0,0,0,0,0,5.5643,5.5609,5.564,5.5647,5.5699,5.5719,5.5726,5.5781,5.5814,5.5802,5.5842,5.5884,5.5908,5.5928,5.5932,5.5908,5.5926,5.5922,5.5917,5.5841,5.5827,5.5816,0,0,0,0,0,0,5.5646,5.5655,5.5641,5.5702,5.5714,5.572,5.5788,5.5803,5.5816,5.5825,5.5875,5.5885,5.593,5.5929,5.5932,5.5908,5.5971,5.5925,5.5921,5.5917,5.5836,5.5825,5.5816,0,0,0,0,0,5.5649,5.5656,5.5726,5.5703,5.5713,5.5779,5.579,5.5802,5.5814,5.5873,5.5885,5.5854,5.5928,5.5934,5.5931,5.5906,5.5969,5.597,5.5922,5.5919,5.5916,5.5831,0,0,0,0,0,0,5.5651,5.5666,5.5729,5.5734,5.5719,5.578,5.5792,5.5802,5.5862,5.5873,5.5855,5.5861,5.5926,5.5931,5.5935,5.5902,5.5968,5.5969,5.5969,5.592,5.5917,5.5915,0,0,0,0,0,0,5.5663,5.567,5.5732,5.575,5.5757,5.578,5.5791,5.5793,5.5861,5.5841,5.5848,5.5857,5.5918,5.5929,5.5932,5.5934,5.5967,5.5968,5.5968,5.5969,5.5918,5.5916,0,0,0,0,0,0,5.5667,5.5673,5.5749,5.5754,5.5762,5.5825,5.5784,5.5833,5.5881,5.5837,5.5886,5.5889,5.5914,5.5919,5.593,5.593,5.5933,5.5967,5.5968,5.5968,5.5968,0,0,0,0,0,0,0,5.567,5.5616,5.5698,5.5759,5.5765,5.5783,5.5785,5.5786,5.5881,5.5883,5.5886,5.5888,5.5962,5.5963,5.5964,5.5926,0,0,5.5967,5.5967,0,0,0,0,0,0,0,0,5.5615,5.5616,5.5698,5.5699,5.5701,5.5784,5.5785,5.5786,5.5882,5.5883,5.5885,5.5887,5.5962,5.5963,5.5964,0,0,0,0,0,0,0,0,0,0,0,0,0,0,0,5.5698,5.5699,0,5.5784,5.5785,5.5786,5.5882,5.5883,5.5885,5.5886,5.5962,5.5963,5.5964,0,0,0,0,0,0,0,0,0,0,0,0,0,0,0,0,0,0,0,0,0,0,0,0,0,0,0,0,0,0,0,0,0,0,0,0,0,0,0,0,0,0,0,0,0,0,0,0,0,0,0,0,0,0,0,0,0,0,0,0,0,0,0,0,0,0,0,0,0]}]]]